[[{"header":{"parameterUnit":"m.s-1","parameterCategory":1,"la1":30.2991,"la2":30.254,"lo1":-89.0895,"lo2":-89.0444,"dy":0.0017,"dx":0.0017,"nx":28,"ny":28,"refTime":"2025-03-08T03:00:00:Z","depth":0,"parameterNumber":2,"parameterNumberName":"U-component_of_WINDS"},"data":[0,0,0,0,0,0,0,0,0,0,0,0,0,0,0,0,0,0,0,0,0,0,0,0,0,0,0,0,0,0,0,0,0,0,0,0,0,0,0,0,0,0,0,0,0,0,0,0,0,0,0,0,0,0,0,0,0,0,-1.989,-1.989,0,-1.9864,-1.9864,-1.9864,-1.9813,-1.9812,-1.9811,-1.981,-1.9784,-1.9785,-1.9785,0,0,0,0,0,0,0,0,0,0,0,0,0,-1.9897,-1.9897,-1.989,-1.989,-1.989,-1.9864,-1.9864,-1.9864,-1.9813,-1.9812,-1.981,-1.9809,-1.9784,-1.9785,-1.9785,0,0,0,0,0,0,0,0,0,0,0,0,0,-1.9885,-1.9897,-1.989,-1.9861,-1.9858,-1.9865,-1.9864,-1.9864,-1.9813,-1.9812,-1.981,-1.9809,-1.9784,-1.9785,-1.9785,-1.9818,0,0,-1.9786,-1.9786,0,0,0,0,0,0,0,0,-1.9886,-1.9885,-1.9866,-1.9863,-1.986,-1.984,-1.9857,-1.9848,-1.9813,-1.983,-1.981,-1.9808,-1.9804,-1.9803,-1.9801,-1.9817,-1.9816,-1.9786,-1.9787,-1.9787,-1.9787,0,0,0,0,0,0,0,-1.9887,-1.9886,-1.988,-1.9866,-1.9862,-1.985,-1.9846,-1.9855,-1.9826,-1.9829,-1.9825,-1.9823,-1.9802,-1.9801,-1.98,-1.9815,-1.9786,-1.9787,-1.9787,-1.9787,-1.9855,-1.9857,0,0,0,0,0,0,-1.9892,-1.9887,-1.9881,-1.9879,-1.9869,-1.9851,-1.9847,-1.9848,-1.9826,-1.9821,-1.9824,-1.982,-1.9801,-1.98,-1.9799,-1.9835,-1.9787,-1.9787,-1.9787,-1.9854,-1.9856,-1.9857,0,0,0,0,0,0,-1.9892,-1.9892,-1.9882,-1.9882,-1.988,-1.9852,-1.9854,-1.9848,-1.9847,-1.9822,-1.9817,-1.9828,-1.98,-1.9799,-1.9813,-1.9834,-1.9787,-1.9788,-1.9852,-1.9854,-1.9857,-1.9908,0,0,0,0,0,0,-1.9892,-1.9892,-1.9904,-1.9883,-1.988,-1.9896,-1.9855,-1.9849,-1.9848,-1.9843,-1.9824,-1.982,-1.9799,-1.9813,-1.9814,-1.9834,-1.9788,-1.985,-1.9853,-1.9856,-1.9905,-1.9912,-1.9919,0,0,0,0,0,-1.9893,-1.992,-1.9905,-1.9904,-1.9894,-1.9897,-1.9896,-1.987,-1.985,-1.9861,-1.9845,-1.9821,-1.9832,-1.9815,-1.9815,-1.9836,-1.9849,-1.9852,-1.9856,-1.9902,-1.9911,-1.9919,0,0,0,0,0,0,-1.9945,-1.9917,-1.9899,-1.992,-1.9912,-1.9889,-1.9903,-1.9881,-1.9878,-1.9874,-1.9843,-1.9839,-1.9858,-1.9848,-1.983,-1.9866,-1.9836,-1.984,-1.9871,-1.988,-1.9886,-1.9888,-1.9788,0,0,0,0,0,-1.9958,-1.9963,-1.9938,-1.9959,-1.9956,-1.993,-1.9931,-1.9912,-1.9902,-1.9898,-1.9883,-1.9874,-1.9876,-1.9877,-1.9878,-1.9904,-1.9899,-1.9918,-1.9925,-1.9931,-1.9934,-1.9946,-1.9954,-1.9869,-1.9869,-1.9869,0,0,-1.9987,-1.9972,-1.9977,-1.9969,-1.996,-1.9966,-1.9927,-1.9935,-1.9939,-1.9899,-1.9911,-1.9901,-1.9889,-1.9909,-1.9917,-1.9902,-1.9957,-1.9935,-1.994,-1.994,-1.9951,-1.9959,-1.9966,-1.9871,-1.9871,-1.9871,0,0,-2.0042,-2.0031,-2.0047,-2.0039,-2.0026,-2.0009,-2.0013,-1.9993,-1.9984,-1.9996,-1.9966,-1.9971,-1.9974,-1.9967,-1.9963,-2.0016,-1.9993,-2.0017,-2.0053,-2.0065,-2.0072,-2.0078,-2.0095,-2.0102,-2.0021,-2.0021,-2.0021,0,-2.0079,-2.0086,-2.0058,-2.0067,-2.0065,-2.0029,-2.0045,-2.0038,-2.0026,-2.0025,-2.0008,-2.0011,-2.0001,-2.0019,-2.0032,-2.0031,-2.0034,-2.0018,-2.0073,-2.0079,-2.0084,-2.01,-2.0107,-2.0024,-2.0023,-2.0023,-2.0023,0,-2.0132,-2.0137,-2.0151,-2.014,-2.0139,-2.0152,-2.0126,-2.0129,-2.0111,-2.0096,-2.0108,-2.0095,-2.0091,-2.0094,-2.0077,-2.0109,-2.01,-2.0079,-2.0048,-2.0095,-2.011,-2.0116,-2.0028,-2.0027,-2.0026,-2.0025,0,0,-2.0217,-2.019,-2.0196,-2.019,-2.0173,-2.0177,-2.0188,-2.0184,-2.0186,-2.018,-2.0188,-2.0192,-2.0172,-2.0168,-2.015,-2.0161,-2.0202,-2.0138,-2.0137,-2.0149,-2.0236,-2.0251,-2.0259,-2.0187,-2.0188,-2.0189,-2.0237,0,-2.0267,-2.0283,-2.0259,-2.0282,-2.0286,-2.0252,-2.0262,-2.0253,-2.024,-2.0241,-2.0227,-2.0229,-2.0203,-2.0201,-2.021,-2.0195,-2.0219,-2.0191,-2.0194,-2.0194,-2.0196,-2.0267,-2.0283,-2.0328,-2.0242,-2.0243,-2.0244,0,-2.0327,-2.0322,-2.0345,-2.0326,-2.0327,-2.0336,-2.033,-2.0333,-2.0322,-2.0311,-2.0307,-2.0285,-2.0295,-2.0266,-2.0279,-2.0261,-2.0261,-2.0254,-2.0255,-2.0253,-2.0221,-2.0266,-2.0342,-2.0349,-2.0253,-2.0252,-2.0252,0,-2.0385,-2.0385,-2.0398,-2.0394,-2.0373,-2.038,-2.0372,-2.0359,-2.0358,-2.0354,-2.0353,-2.035,-2.0348,-2.0346,-2.0324,-2.0305,-2.0339,-2.0309,-2.033,-2.033,-2.0337,-2.0337,-2.0414,-2.034,-2.034,-2.034,-2.034,0,-2.0443,-2.0457,-2.0424,-2.0432,-2.0448,-2.042,-2.0437,-2.0425,-2.0414,-2.042,-2.0391,-2.0397,-2.0367,-2.037,-2.0353,-2.0366,-2.0365,-2.0357,-2.0352,-2.0358,-2.0359,-2.0357,-2.0352,-2.0341,-2.0341,-2.0341,-2.034,0,-2.051,-2.0488,-2.05,-2.0479,-2.0474,-2.0487,-2.0469,-2.0475,-2.046,-2.0467,-2.0467,-2.0444,-2.0445,-2.0423,-2.042,-2.0409,-2.0429,-2.0419,-2.0432,-2.0429,-2.045,-2.0448,-2.0527,-2.0536,-2.0458,-2.0459,-2.0459,0,-2.0547,-2.0558,-2.0538,-2.0539,-2.0532,-2.0534,-2.0533,-2.0507,-2.0507,-2.0495,-2.0503,-2.0503,-2.05,-2.0504,-2.0487,-2.0485,-2.0474,-2.0501,-2.0473,-2.0479,-2.0472,-2.0471,-2.0472,-2.0507,-2.0508,-2.0509,-2.0509,0,-2.0615,-2.0604,-2.0603,-2.0599,-2.0598,-2.0593,-2.0587,-2.0589,-2.0561,-2.0562,-2.0563,-2.0562,-2.0559,-2.0558,-2.0552,-2.0544,-2.0522,-2.0519,-2.0523,-2.0529,-2.0536,-2.0531,-2.0447,-2.0517,-2.0516,-2.0515,-2.0515,-2.0515,-2.0668,-2.0675,-2.0662,-2.0662,-2.0654,-2.0649,-2.0654,-2.0639,-2.0639,-2.0634,-2.062,-2.0623,-2.0612,-2.0602,-2.0595,-2.0598,-2.0584,-2.0591,-2.0592,-2.0594,-2.0598,-2.0537,-2.0597,-2.0597,-2.0596,-2.0596,-2.0596,0,-2.0733,-2.0723,-2.0724,-2.0715,-2.0715,-2.0695,-2.0686,-2.0688,-2.0691,-2.0682,-2.068,-2.0681,-2.068,-2.0663,-2.066,-2.0665,-2.0655,-2.0665,-2.0664,-2.0662,-2.0611,-2.0606,-2.0673,-2.0673,-2.0673,-2.0673,-2.0673,-2.0673,-2.0767,-2.0778,-2.0766,-2.0773,-2.0763,-2.0766,-2.0763,-2.0758,-2.075,-2.0752,-2.0751,-2.074,-2.0728,-2.0724,-2.0722,-2.0717,-2.0717,-2.073,-2.0722,-2.0673,-2.0666,-2.0659,-2.0654,-2.073,-2.0731,-2.0772,-2.0773,-2.0773]},{"header":{"parameterUnit":"m.s-1","parameterCategory":1,"la1":30.2991,"la2":30.254,"lo1":-89.0895,"lo2":-89.0444,"dy":0.0017,"dx":0.0017,"nx":28,"ny":28,"refTime":"2025-03-08T03:00:00:Z","depth":0,"parameterNumber":3,"parameterNumberName":"V-component_of_WINDS"},"data":[0,0,0,0,0,0,0,0,0,0,0,0,0,0,0,0,0,0,0,0,0,0,0,0,0,0,0,0,0,0,0,0,0,0,0,0,0,0,0,0,0,0,0,0,0,0,0,0,0,0,0,0,0,0,0,0,0,0,3.4826,3.4826,0,3.4803,3.4803,3.4803,3.4856,3.4858,3.486,3.4861,3.4834,3.4832,3.483,0,0,0,0,0,0,0,0,0,0,0,0,0,3.4915,3.4913,3.4826,3.4826,3.4826,3.4804,3.4803,3.4803,3.4856,3.4858,3.486,3.4862,3.4835,3.4832,3.4829,0,0,0,0,0,0,0,0,0,0,0,0,0,3.4883,3.4913,3.4826,3.485,3.4852,3.4804,3.4803,3.4803,3.4855,3.4858,3.4861,3.4863,3.4836,3.4832,3.4829,3.4756,0,0,3.4818,3.4817,0,0,0,0,0,0,0,0,3.4884,3.4879,3.4847,3.4848,3.485,3.4835,3.4825,3.4787,3.4855,3.4854,3.4861,3.4864,3.4832,3.4829,3.4819,3.4755,3.4754,3.4818,3.4816,3.4814,3.4813,0,0,0,0,0,0,0,3.4887,3.4881,3.4817,3.4846,3.4848,3.4861,3.4859,3.4818,3.4829,3.4854,3.4858,3.4855,3.4834,3.4822,3.4819,3.4753,3.4818,3.4815,3.4813,3.4812,3.4633,3.463,0,0,0,0,0,0,3.4886,3.4882,3.4818,3.4817,3.4874,3.4857,3.4855,3.4837,3.4829,3.4831,3.4853,3.4857,3.4827,3.4823,3.4818,3.4736,3.4814,3.4811,3.4809,3.4635,3.4632,3.4629,0,0,0,0,0,0,3.4888,3.488,3.4819,3.485,3.4844,3.4853,3.4833,3.4836,3.4825,3.4828,3.483,3.4839,3.4829,3.4823,3.4773,3.4735,3.481,3.4806,3.4639,3.4634,3.4631,3.4568,0,0,0,0,0,0,3.489,3.488,3.4853,3.4849,3.4842,3.4773,3.483,3.4833,3.4819,3.4825,3.4816,3.4817,3.483,3.4777,3.4769,3.4732,3.4804,3.4642,3.4637,3.4632,3.4573,3.4562,3.4553,0,0,0,0,0,3.4893,3.4834,3.4851,3.4843,3.4808,3.4771,3.4767,3.4784,3.4815,3.4788,3.4791,3.4817,3.4741,3.4772,3.4763,3.4724,3.4644,3.4638,3.4632,3.4578,3.4564,3.4553,0,0,0,0,0,0,3.483,3.4834,3.4853,3.4791,3.4781,3.478,3.4746,3.4769,3.4748,3.4755,3.4776,3.4774,3.472,3.4716,3.4751,3.4655,3.4698,3.469,3.466,3.4647,3.4637,3.4639,3.4801,0,0,0,0,0,3.4809,3.478,3.4785,3.473,3.4724,3.4736,3.472,3.4735,3.4725,3.4721,3.472,3.4708,3.4682,3.4664,3.4639,3.4573,3.4574,3.4542,3.4532,3.4524,3.4517,3.4485,3.4472,3.461,3.461,3.461,0,0,3.4765,3.4764,3.4744,3.4717,3.4711,3.4681,3.4732,3.4696,3.4675,3.4715,3.4669,3.4667,3.4656,3.4599,3.4573,3.4594,3.4479,3.4516,3.4509,3.4507,3.4478,3.4465,3.4453,3.4606,3.4606,3.4607,0,0,3.467,3.4665,3.4621,3.4615,3.4606,3.4615,3.4605,3.4602,3.4604,3.4558,3.4589,3.4562,3.4515,3.4508,3.4497,3.4404,3.4428,3.4395,3.4341,3.431,3.43,3.429,3.426,3.4248,3.4388,3.4388,3.4388,0,3.4616,3.4573,3.4595,3.4559,3.4548,3.4585,3.4542,3.4534,3.4516,3.4508,3.4532,3.4478,3.4472,3.4415,3.4393,3.4382,3.4372,3.4396,3.43,3.429,3.4282,3.4253,3.4241,3.4384,3.4384,3.4385,3.4385,0,3.4509,3.4478,3.4443,3.443,3.4414,3.4374,3.439,3.4372,3.4389,3.4395,3.435,3.4345,3.4323,3.431,3.4324,3.4255,3.427,3.4296,3.434,3.4265,3.4238,3.4227,3.4378,3.438,3.4381,3.4382,0,0,3.4371,3.4373,3.436,3.4356,3.4351,3.4328,3.4291,3.4271,3.4256,3.4243,3.4214,3.4175,3.4201,3.419,3.4204,3.4177,3.4107,3.4207,3.4207,3.4191,3.4035,3.4016,3.4003,3.4123,3.4121,3.4119,3.4037,0,3.428,3.4219,3.4239,3.4176,3.415,3.4187,3.4155,3.4149,3.4154,3.4133,3.4139,3.4113,3.4147,3.4142,3.4116,3.4121,3.4076,3.4127,3.4097,3.4096,3.4101,3.3988,3.3968,3.389,3.4026,3.4024,3.4023,0,3.4165,3.4152,3.4087,3.4091,3.4081,3.4051,3.4037,3.4015,3.401,3.4016,3.4005,3.4027,3.3991,3.4034,3.3987,3.4021,3.401,3.4011,3.4009,3.4008,3.4056,3.3987,3.3865,3.3854,3.4006,3.4007,3.4009,0,3.4076,3.4041,3.3999,3.3994,3.3996,3.3975,3.3975,3.3972,3.396,3.3947,3.394,3.3921,3.3912,3.3898,3.3914,3.3943,3.3865,3.3909,3.3871,3.3871,3.3854,3.3855,3.3731,3.3843,3.3843,3.3843,3.3843,0,3.3973,3.3932,3.396,3.3934,3.3891,3.3915,3.3871,3.3875,3.3873,3.3849,3.3878,3.3855,3.3877,3.3857,3.3869,3.383,3.3824,3.3829,3.3834,3.3828,3.3828,3.3822,3.3829,3.384,3.3841,3.3841,3.3842,0,3.3865,3.3882,3.3839,3.3846,3.3847,3.3815,3.3821,3.3798,3.3807,3.3777,3.3771,3.3785,3.3762,3.3777,3.3753,3.3762,3.3712,3.3722,3.3714,3.3718,3.368,3.3685,3.355,3.3535,3.3654,3.3653,3.3652,0,3.3799,3.377,3.3775,3.3763,3.3761,3.3739,3.3729,3.3752,3.3739,3.3733,3.3711,3.3691,3.3677,3.3639,3.3647,3.363,3.3642,3.3596,3.3639,3.3636,3.3644,3.3647,3.3646,3.3587,3.3586,3.3585,3.3584,0,3.3682,3.3693,3.3677,3.3664,3.3652,3.3642,3.3635,3.3623,3.3647,3.3631,3.361,3.3599,3.3577,3.3558,3.3545,3.3544,3.3568,3.357,3.3561,3.3556,3.3554,3.3558,3.3693,3.3573,3.3574,3.3575,3.3576,3.3576,3.3595,3.3572,3.3574,3.3556,3.3554,3.3548,3.3528,3.3536,3.352,3.3505,3.3519,3.3494,3.3492,3.3478,3.3475,3.3456,3.3474,3.346,3.3457,3.3454,3.345,3.3556,3.3453,3.3453,3.3453,3.3454,3.3454,0,3.3482,3.3486,3.3469,3.3461,3.3447,3.3473,3.3468,3.3455,3.3433,3.343,3.3417,3.3394,3.3376,3.3384,3.3369,3.3353,3.3364,3.3348,3.3351,3.3351,3.3432,3.3443,3.334,3.334,3.334,3.334,3.334,3.334,3.3421,3.3386,3.3397,3.3362,3.3365,3.3343,3.3338,3.3333,3.3332,3.3306,3.3292,3.3298,3.33,3.3286,3.3272,3.3275,3.3269,3.325,3.3257,3.3333,3.3345,3.3355,3.3366,3.3248,3.3248,3.3178,3.3177,3.3177]}]]